Regional Weather Roundup
Issued by NWS Mt. Holly, NJ

Home | Current Version | Previous Version | Text Only | Print | Product List | Glossary On
Versions: 1 2 3 4 5 6 7 8 9 10 11 12 13 14 15 16 17 18 19 20 21 22 23 24 25 26 27 28 29 30 31 32 33 34 35 36 37 38 39 40 41 42 43 44 45 46 47 48 49 50
000
ASUS41 KPHI 040212
RWRPHI

REGIONAL WEATHER ROUNDUP
NATIONAL WEATHER SERVICE MOUNT HOLLY NJ
900 PM EST SAT DEC 03 2016

NOTE:  "FAIR" INDICATES FEW OR NO CLOUDS BELOW 12,000 FEET WITH NO
SIGNIFICANT WEATHER AND/OR OBSTRUCTIONS TO VISIBILITY.

 * = STATION DOES NOT REPORT PRECIPITATION (E.G. RAIN, SNOW, ETC.)
        OR FOG.

NJZ015>026-040300-
SOUTHERN NEW JERSEY

CITY           SKY/WX    TMP DP  RH WIND       PRES   REMARKS
POMONA         CLOUDY    44  31  60 NW7       30.17R
WILDWOOD*      CLOUDY    46  34  62 W9        30.19S
MILLVILLE      CLOUDY    45  33  63 W6        30.18S
WRIGHTSTOWN    CLOUDY    45  28  50 NW7       30.13R
MOUNT HOLLY    CLOUDY    46  27  47 NW6       30.16S
TRENTON        CLOUDY    45  27  49 VRB5      30.15R

$$
NJZ001>014-040300-
NORTHERN NEW JERSEY

CITY           SKY/WX    TMP DP  RH WIND       PRES   REMARKS
SUSSEX         CLOUDY    40  29  64 NW7G20    30.12S
ANDOVER*         N/A     40  27  59 N8        30.12S WCI  34
MORRISTOWN     MOCLDY    43  28  56 NW8       30.13R
NEWARK         CLOUDY    45  28  51 NW13G25   30.13R
TETERBORO      CLOUDY    43  27  53 NW14G21   30.12R
CALDWELL       CLOUDY    43  28  55 NW10G20   30.13R
SOMERVILLE     CLOUDY    45  24  43 NW8       30.12R
ALLAIRE*       CLOUDY   N/A N/A N/A W8        30.15R
TOMS RIVER*    CLOUDY    45  27  49 NW13G21   30.16R

$$
PAZ043-044-047-054-055-060>062-066>071-040300-
EASTERN PENNSYLVANIA

CITY           SKY/WX    TMP DP  RH WIND       PRES   REMARKS
PHILADELPHIA   CLOUDY    47  30  51 W8        30.18S
NORTH PHILA    CLOUDY    47  28  47 N15       30.17S
BLUE BELL*     CLOUDY    43  32  65 W3        30.16R
DOYLESTOWN     CLOUDY    45  29  53 NW7       30.14R
QUAKERTOWN*    CLOUDY    43  28  56 N6        30.15R
PERKASIE*      CLOUDY    43  28  56 NW8       30.15R
POTTSTOWN      CLOUDY    42  31  64 W6        30.17S
LANCASTER      CLOUDY    44  32  62 NW13      30.18R
COATESVILLE    CLOUDY    43  32  65 NW10G16   30.18S
READING        CLOUDY    44  31  60 NW9       30.16S
ALLENTOWN      CLOUDY    44  27  51 NW18G32   30.15R
MOUNT POCONO   CLOUDY    34  24  67 N14G23    30.06S WCI  25
HAZLETON       CLOUDY    37  28  70 NW15G22   30.14R WCI  28
LEHIGHTON        N/A     43  28  56 NW13G24   30.16R
WILKES BARRE   CLOUDY    39  28  64 N16       30.14S WCI  30

$$
DEZALL-MDZ008-012-015-019-020-040300-
DELAWARE AND EASTERN MARYLAND

CITY           SKY/WX    TMP DP  RH WIND       PRES   REMARKS
WILMINGTON     CLOUDY    45  31  58 W10       30.19S
DOVER          CLOUDY    45  33  63 W9        30.18S
GEORGETOWN     PTCLDY    43  31  62 W6        30.21S
EASTON         PTCLDY    43  30  61 MISG      30.26S
ABERDEEN       CLOUDY    44  31  62 W6        30.21S
PATUXENT       PTCLDY    42  28  57 W12       30.25R
OCEAN CITY     MOCLDY    42  30  62 W6        30.21S
WALLOPS ISLAND CLOUDY    42  33  70 W7        30.24R
CAMBRIDGE      CLOUDY    43  32  65 W5        30.23R
SALISBURY      PTCLDY    42  31  64 W7        30.22R

$$
PAZ001-021-NYZ056-072-MDZ011-DCZ001-040300-
OTHER NEARBY LOCATIONS

CITY           SKY/WX    TMP DP  RH WIND       PRES   REMARKS
HARRISBURG     MOCLDY    45  30  55 NW12      30.19S
STATE COLLEGE  CLOUDY    37  32  81 NW12G18   30.20R WCI  30
WILLIAMSPORT   CLOUDY    42  30  62 W9        30.19R
BINGHAMTON     CLOUDY    32  26  78 NW10G20   30.11F WCI  24
NEW YORK CITY  MOCLDY    43  27  53 NW10G20   30.13S
BALTIMORE      MOCLDY    41  30  65 W12       30.23S
WASHINGTON DC  CLOUDY    43  29  57 NW15      30.26S

$$



USA.gov is the U.S. government's official web portal to all federal, state and local government web resources and services.